Date String (YYYY-MM-DD hh:mm:ss) UTC,Instrument flags,absolute air pressure of the measurement (hPa),sample flow rate (lpm),inlet stack bypass flow (lpm),air temperature of the measurement (°C),ambient temperature measured by the external sensor (°C),aerosol sample conditioner tube jacket temperature (°C),OPC LED temperature (°C),internal box temperature (°C),relative humidity of the measurement (%),span deviation,mass concentration of particles derived from Lorenz-Mie calculation of OPC scattering (μg/m³),mass concentration of particles derived from Lorenz-Mie calculation of OPC scattering (μg/m³),mass concentration of particles derived from Lorenz-Mie calculation of OPC scattering (μg/m³)
DateTimeUTC,F1_M11,P_M11,Q1_M11,Q2_M11,T1_M11,T2_M11,T3_M11,T4_M11,T5_M11,U1_M11,ZSPAN_M11,X0_M11,X2_M11,X1_M11
2024-03-07 15:00:00,SystemResetWarning,0823.1,4.99,000.00,018.6,017.9,000.0,027.2,020.4,23.9,0001.8,0016.41,0005.97,0004.77
2024-03-07 15:01:00,SystemResetWarning,0823.1,5.00,000.00,018.6,017.9,000.0,027.2,020.4,24.0,0002.3,0016.27,0005.99,0004.76
2024-03-07 15:02:00,SystemResetWarning,0823.1,5.00,000.00,018.6,017.9,000.0,027.2,020.3,24.0,0002.6,0015.72,0005.96,0004.76
2024-03-07 15:03:00,SystemResetWarning,0823.1,5.00,000.00,018.6,017.9,000.0,027.2,020.3,24.1,0002.5,0016.60,0005.97,0004.75
2024-03-07 15:04:00,SystemResetWarning,0823.1,5.00,000.00,018.6,017.9,000.0,027.2,020.3,24.1,0002.3,0017.06,0006.00,0004.76
2024-03-07 15:05:00,SystemResetWarning,0823.1,5.00,000.00,018.6,017.9,000.0,027.1,020.3,24.2,0002.6,0016.90,0006.05,0004.78
2024-03-07 15:06:00,SystemResetWarning,0823.1,5.00,000.00,018.6,017.9,000.0,027.1,020.3,24.2,0003.0,0016.65,0006.08,0004.81
2024-03-07 15:07:00,SystemResetWarning,0823.1,4.99,000.00,018.6,017.9,000.0,027.1,020.3,24.2,0003.1,0017.41,0006.11,0004.83
2024-03-07 15:08:00,SystemResetWarning,0823.1,4.99,000.00,018.6,017.9,000.0,027.1,020.3,24.3,0003.1,0017.87,0006.09,0004.84
2024-03-07 15:09:00,SystemResetWarning,0823.1,5.00,000.00,018.5,017.9,000.0,027.1,020.3,24.3,0003.0,0017.80,0006.11,0004.86
2024-03-07 15:10:00,SystemResetWarning,0823.1,5.00,000.00,018.5,017.9,000.0,027.1,020.3,24.4,0002.3,0017.80,0006.18,0004.87
2024-03-07 15:11:00,SystemResetWarning,0823.1,5.01,000.00,018.5,017.9,000.0,027.1,020.3,24.4,0002.2,0016.69,0006.24,0004.86
2024-03-07 15:12:00,SystemResetWarning,0823.1,5.01,000.00,018.5,017.9,000.0,027.1,020.3,24.4,0001.9,0016.73,0006.19,0004.85
2024-03-07 15:13:00,SystemResetWarning,0823.1,5.00,000.00,018.5,017.9,000.0,027.1,020.3,24.4,0001.7,0016.92,0006.17,0004.83
2024-03-07 15:14:00,SystemResetWarning,0823.1,5.00,000.00,018.5,017.9,000.0,027.1,020.3,24.5,0002.1,0016.92,0006.14,0004.80
2024-03-07 15:15:00,SystemResetWarning,0823.1,5.00,000.00,018.5,017.9,000.0,027.1,020.3,24.5,0002.5,0016.25,0006.09,0004.78
2024-03-07 15:16:00,SystemResetWarning,0823.1,5.00,000.00,018.5,017.9,000.0,027.1,020.3,24.5,0002.2,0016.92,0006.00,0004.74
2024-03-07 15:17:00,SystemResetWarning,0823.1,5.00,000.00,018.5,017.9,000.0,027.1,020.3,24.5,0002.1,0016.52,0006.03,0004.71
2024-03-07 15:18:00,SystemResetWarning,0823.1,5.00,000.00,018.5,017.9,000.0,027.1,020.3,24.5,0002.3,0016.05,0005.98,0004.69
2024-03-07 15:19:00,SystemResetWarning,0823.1,5.00,000.00,018.5,017.9,000.0,027.1,020.3,24.5,0002.4,0016.71,0006.00,0004.68
2024-03-07 15:20:00,SystemResetWarning,0823.1,5.00,000.00,018.5,017.9,000.0,027.1,020.3,24.5,0002.5,0016.97,0005.95,0004.66
2024-03-07 15:21:00,SystemResetWarning,0823.1,5.00,000.00,018.5,017.9,000.0,027.1,020.3,24.5,0002.8,0017.63,0005.89,0004.66
2024-03-07 15:22:00,SystemResetWarning,0823.1,5.00,000.00,018.5,017.8,000.0,027.1,020.3,24.5,0002.9,0017.75,0005.85,0004.67
2024-03-07 15:23:00,SystemResetWarning,0823.0,5.00,000.00,018.5,017.8,000.0,027.1,020.2,24.6,0003.1,0017.98,0005.91,0004.69
2024-03-07 15:24:00,SystemResetWarning,0823.1,5.00,000.00,018.5,017.9,000.0,027.1,020.2,24.6,0003.3,0018.19,0005.98,0004.73
2024-03-07 15:25:00,SystemResetWarning,0823.1,5.00,000.00,018.5,017.9,000.0,027.1,020.2,24.7,0003.5,0017.71,0006.02,0004.76
2024-03-07 15:26:00,SystemResetWarning,0823.1,5.00,000.00,018.5,017.9,000.0,027.0,020.2,24.7,0003.2,0017.83,0006.08,0004.80
2024-03-07 15:27:00,SystemResetWarning,0823.1,5.00,000.00,018.5,017.9,000.0,027.0,020.2,24.7,0003.5,0017.97,0006.20,0004.84
2024-03-07 15:28:00,SystemResetWarning,0823.1,5.00,000.00,018.5,017.9,000.0,027.0,020.2,24.7,0003.6,0019.15,0006.24,0004.87
2024-03-07 15:29:00,SystemResetWarning,0823.2,5.00,000.00,018.5,017.9,000.0,027.0,020.2,24.7,0003.7,0019.02,0006.30,0004.90
2024-03-07 15:30:00,SystemResetWarning,0823.1,5.01,000.00,018.5,017.9,000.0,027.0,020.2,24.7,0003.5,0018.48,0006.41,0004.94
2024-03-07 15:31:00,SystemResetWarning,0823.1,5.01,000.00,018.5,017.9,000.0,027.0,020.2,24.7,0003.3,0018.24,0006.46,0004.96
2024-03-07 15:32:00,SystemResetWarning,0823.1,5.00,000.00,018.4,017.9,000.0,027.0,020.2,24.7,0003.4,0017.23,0006.54,0005.01
2024-03-07 15:33:00,SystemResetWarning,0823.1,4.99,000.00,018.5,017.9,000.0,027.0,020.2,24.8,0003.1,0016.82,0006.64,0005.05
2024-03-07 15:34:00,SystemResetWarning,0823.1,5.00,000.00,018.4,017.8,000.0,027.0,020.2,24.7,0002.7,0017.68,0006.67,0005.09
2024-03-07 15:35:00,SystemResetWarning,0823.1,5.01,000.00,018.5,017.8,000.0,027.0,020.2,24.7,0002.3,0017.30,0006.66,0005.11
2024-03-07 15:36:00,SystemResetWarning,0823.1,4.99,000.00,018.4,017.8,000.0,027.0,020.2,24.7,0002.0,0016.85,0006.63,0005.15
2024-03-07 15:37:00,SystemResetWarning,0823.1,4.99,000.00,018.4,017.8,000.0,027.0,020.2,24.7,0001.8,0016.82,0006.68,0005.18
2024-03-07 15:38:00,SystemResetWarning,0823.0,5.00,000.00,018.4,017.8,000.0,027.0,020.2,24.7,0001.5,0016.22,0006.61,0005.19
2024-03-07 15:39:00,SystemResetWarning,0823.1,5.00,000.00,018.4,017.8,000.0,027.0,020.2,24.7,0000.7,0015.43,0006.54,0005.18
2024-03-07 15:40:00,SystemResetWarning,0823.0,5.00,000.00,018.4,017.8,000.0,027.0,020.2,24.7,-000.0,0015.39,0006.53,0005.18
2024-03-07 15:41:00,SystemResetWarning,0823.1,5.00,000.00,018.4,017.8,000.0,027.0,020.2,24.6,-000.2,0015.14,0006.49,0005.16
2024-03-07 15:42:00,SystemResetWarning,0823.1,5.00,000.00,018.4,017.8,000.0,027.0,020.2,24.6,0000.0,0014.88,0006.39,0005.14
2024-03-07 15:43:00,SystemResetWarning,0823.1,5.00,000.00,018.4,017.8,000.0,027.0,020.2,24.7,0000.0,0014.70,0006.30,0005.11
2024-03-07 15:44:00,SystemResetWarning,0823.0,5.00,000.00,018.4,017.8,000.0,027.0,020.2,24.7,0000.0,0015.03,0006.19,0005.06
2024-03-07 15:45:00,SystemResetWarning,0823.0,5.00,000.00,018.4,017.8,000.0,027.0,020.2,24.7,0000.0,0014.93,0006.11,0005.01
2024-03-07 15:46:00,SystemResetWarning,0823.0,5.00,000.00,018.4,017.8,000.0,027.0,020.2,24.7,0000.0,0014.35,0006.06,0004.96
2024-03-07 15:47:00,SystemResetWarning,0823.0,5.00,000.00,018.4,017.8,000.0,027.0,020.2,24.7,0000.0,0014.35,0006.05,0004.92
2024-03-07 15:48:00,SystemResetWarning,0823.0,5.00,000.00,018.4,017.8,000.0,027.0,020.2,24.7,0000.0,0015.69,0006.03,0004.87
2024-03-07 15:49:00,SystemResetWarning,0823.0,5.00,000.00,018.4,017.8,000.0,027.0,020.2,24.8,0000.0,0016.38,0006.05,0004.82
2024-03-07 15:50:00,SystemResetWarning,0823.0,5.00,000.00,018.4,017.8,000.0,027.0,020.2,24.8,0000.0,0016.10,0006.00,0004.76
2024-03-07 15:51:00,SystemResetWarning,0823.0,5.00,000.00,018.4,017.8,000.0,027.0,020.2,24.7,0000.0,0015.51,0005.98,0004.71
2024-03-07 15:52:00,SystemResetWarning,0823.0,5.00,000.00,018.4,017.8,000.0,027.0,020.2,24.7,0000.0,0015.42,0005.91,0004.67
2024-03-07 15:53:00,SystemResetWarning,0823.0,5.00,000.00,018.4,017.8,000.0,027.0,020.2,24.7,0000.0,0015.67,0005.91,0004.62
2024-03-07 15:54:00,SystemResetWarning,0823.0,5.00,000.00,018.4,017.7,000.0,027.0,020.2,24.7,0000.0,0016.12,0005.90,0004.59
2024-03-07 15:55:00,SystemResetWarning,0823.0,5.00,000.00,018.4,017.7,000.0,027.0,020.2,24.8,0000.0,0016.55,0005.94,0004.57
2024-03-07 15:56:00,SystemResetWarning,0823.0,5.00,000.00,018.4,017.7,000.0,027.0,020.2,24.8,0000.0,0018.71,0006.18,0004.57
2024-03-07 15:57:00,SystemResetWarning,0823.0,5.01,000.00,018.4,017.7,000.0,027.0,020.1,24.8,0000.0,0020.06,0006.21,0004.55
2024-03-07 15:58:00,SystemResetWarning,0823.0,5.01,000.00,018.4,017.7,000.0,027.0,020.1,24.8,0000.0,0020.61,0006.24,0004.54
2024-03-07 15:59:00,SystemResetWarning,0823.0,4.99,000.00,018.4,017.7,000.0,027.0,020.1,24.8,0000.0,0020.11,0006.19,0004.51
